Regional Weather Roundup
Issued by NWS

Home | Current Version | Previous Version | Text Only | Print | Product List | Glossary Off
Versions: 1 2 3 4 5 6 7 8 9 10 11 12 13 14 15 16 17 18 19 20 21 22 23 24 25 26 27 28 29 30 31 32 33 34 35 36 37 38 39 40 41 42 43 44 45 46 47 48 49 50

000
ASUS43 KMKX 021721
RWRWI

WISCONSIN REGIONAL WEATHER ROUNDUP
NATIONAL WEATHER SERVICE MILWAUKEE/SULLIVAN WI
1200 PM CDT TUE SEP 02 2014

NOTE: "FAIR" INDICATES FEW OR NO CLOUDS BELOW 12,000 FEET WITH NO
SIGNIFICANT WEATHER AND/OR OBSTRUCTIONS TO VISIBILITY.

WIZ001-002-006>008-014>016-023>028-021800-
NORTHWEST WISCONSIN

CITY           SKY/WX    TMP DP  RH WIND       PRES   REMARKS
SUPERIOR ARPT  SUNNY     73  56  55 W10       29.82F
ASHLAND        SUNNY     73  55  53 SW9       29.84F
HAYWARD        SUNNY     69  52  54 W9        29.87F
SIREN          SUNNY     71  55  57 SW7       29.88S
RICE LAKE      SUNNY     71  51  49 W7        29.90S
LADYSMITH      SUNNY     70  55  57 CALM      29.90S
EAU CLAIRE     SUNNY     73  57  57 W8        29.88R
MENOMONIE      SUNNY     73  58  59 W6        29.89S
NEW RICHMOND   SUNNY     72  54  54 W5        29.90S
OSCEOLA        SUNNY     71  55  56 NW3       29.92S
$$

WIZ003>005-009-010-017-018-021800-
NORTH CENTRAL WISCONSIN

CITY           SKY/WX    TMP DP  RH WIND       PRES   REMARKS
WOODRUFF       SUNNY     67  54  62 NW7       29.88S
RHINELANDER    MOSUNNY   69  53  56 W12       29.88F
EAGLE RIVER    MOSUNNY   68  52  56 W6        29.86F
LAND O LAKES   MOSUNNY   68  52  55 NW8       29.87S
PHILLIPS       MOSUNNY   68  55  62 SW6       29.87F
TOMAHAWK       SUNNY     69  53  55 W10       29.89S
MEDFORD        SUNNY     69  57  65 NW6       29.88F
MERRILL        SUNNY     69  57  65 NW8       29.87F
$$

WIZ029-030-035-036-043>047-021800-
CENTRAL WISCONSIN

CITY           SKY/WX    TMP DP  RH WIND       PRES   REMARKS
WAUSAU         MOSUNNY   70  56  61 W7        29.87S
MOSINEE        MOSUNNY   68  63  83 W6        29.89F
MARSHFIELD     PTSUNNY   71  61  70 W10       29.89S
STEVENS POINT  MOSUNNY   68  58  71 W7        29.89F
WAUPACA        MOSUNNY   74  61  64 W9        29.88F
WAUTOMA        LGT RAIN  74  58  57 W12       29.90S
WISC RAPIDS    SUNNY     72  57  59 W9        29.91S
CAMP DOUGLAS   MOSUNNY   73  59  60 W6        29.91R
$$

WIZ011>013-019>022-031-037>040-048>050-021800-
NORTHEAST WISCONSIN

CITY           SKY/WX    TMP DP  RH WIND       PRES   REMARKS
ANTIGO         PTSUNNY   67  58  73 W6        29.88F
STURGEON BAY   CLOUDY    63  55  77 SW7       29.87F
GREEN BAY      CLOUDY    68  60  75 CALM      29.87F
MANITOWOC      CLOUDY    71  62  73 W6        29.89R
APPLETON       MOSUNNY   72  59  64 CALM      29.89F
CLINTONVILLE   PTSUNNY   70  59  68 W9        29.88R
OSHKOSH        PTSUNNY   72  61  68 W7        29.89S
$$

WIZ032>034-041-042-053>061-021800-
SOUTHWEST WISCONSIN

CITY           SKY/WX    TMP DP  RH WIND       PRES   REMARKS
LA CROSSE      SUNNY     75  56  51 W9        29.90S
SPARTA         SUNNY     73  54  52 W8        29.91S
VIROQUA        FAIR      73  58  58 SW6       29.93R
BOSCOBEL       SUNNY     76  54  46 W7        29.92R
PRAIRIE DU CHI SUNNY     73  57  57 SW6       29.91F
PLATTEVILLE    PTSUNNY   69  62  77 SW7       29.94S
$$

WIZ056-057-062-063-064-067-068-021800-
SOUTH CENTRAL WISCONSIN

CITY           SKY/WX    TMP DP  RH WIND       PRES   REMARKS
BARABOO/DELLS  MOSUNNY   73  56  54 W8        29.91S
LONE ROCK      SUNNY     77  60  55 SW7       29.92R
WATERTOWN      PTSUNNY   74  63  68 W6        29.90S
MADISON        PTSUNNY   73  61  65 VRB3      29.91S
MIDDLETON      PTSUNNY   73  59  61 NW3       29.92S
MONROE         MOSUNNY   72  55  56 W12       29.92S
JANESVILLE     PTSUNNY   73  57  56 SW15      29.91R
$$

WIZ051-052-058>065-066-070>072-021800-
SOUTHEAST WISCONSIN

CITY           SKY/WX    TMP DP  RH WIND       PRES   REMARKS
MILWAUKEE      PTSUNNY   76  57  51 W10       29.89S
WAUKESHA       MOSUNNY   73  59  60 W9        29.91S
MILWAUKEE/TIMM SUNNY     73  57  56 SW8       29.90S
RACINE         MOSUNNY   77  58  51 W6        29.91S
BURLINGTON     MOSUNNY   75  57  53 W8        29.91R
KENOSHA        MOSUNNY   77  60  55 W7        29.90F
FOND DU LAC    CLOUDY    72  62  71 W7        29.90S
SHEBOYGAN      CLOUDY    73  59  61 W8        29.89S
WEST BEND      CLOUDY    72  57  60 SW8       29.90S
JUNEAU         CLOUDY    71  61  72 SW10      29.92R
$$

LSZ147-162-021800-
LAKE SUPERIOR

STATION/POSITION TIME  TEMP    WIND        PRES    WAVE
                       AIR SEA DIR/SP/G            HT/PER
                 (UTC) (F)     (DEG/KT/KT) (MB)    (FT/S)
W MID LAKE BUOY  1650   60 57  230/ 12/ 14 1009.0R   1/ 4
DEVILS ISLAND    1700   64     230/ 12/ 13 1009.5F
PORT WING        1600   66     280/  7/  9 1010.2S
SAXON HARBOR     1600   70     190/  4/  6 1010.5R
$$

LMZ867-665-643>646-021800-
LAKE MICHIGAN

STATION/POSITION TIME  TEMP    WIND        PRES    WAVE
                       AIR SEA DIR/SP/G            HT/PER
                 (UTC) (F)     (DEG/KT/KT) (MB)    (FT/S)
N MID LAKE BUOY  1650   65 65  220/ 10/ 12 1010.4F   1/ 5
NORTHPORT PIER   1600   70     240/  3/  9 1011.2R
SISTER BAY       1526   76     280/  7/  8   N/A
KEWAUNEE LAKESHO 1700   70     290/  5/  8 1010.9R
SHEBOYGAN LAKESH 1700   72 50  240/ 10/ 11 1012.0R
ATWATER BUOY     1700   72     330/  4/  8 1013.4R
MILWAUKEE LAKESH 1700   75     280/  9/ 12   N/A
S MID LAKE BUOY  1650   71 72  200/  2/  4 1012.4F   1
KENOSHA   LAKESH 1700   73     140/  8/  9 1011.9
$$

TC  - TEMPERATURE IN CELSIUS
VSB - VISIBILITY IN STATUTE MILES
WCI - WIND CHILL INDEX
HX  - HEAT INDEX



USA.gov is the U.S. government's official web portal to all federal, state and local government web resources and services.